<?xml version="1.0" encoding="UTF-8" standalone="no" ?>
<gpx xmlns="http://www.topografix.com/GPX/1/1" xmlns:xsi="http://www.w3.org/2001/XMLSchema-instance" xsi:schemaLocation="http://www.topografix.com/GPX/1/1 http://www.topografix.com/GPX/1/1/gpx.xsd" version="1.1" creator="VisuGPX - https://www.visugpx.com">
  <metadata>
    <name>Kilian's Classik - Trails dels amics</name>
  </metadata>
  <trk>
    <name><![CDATA[Kilian's Classik - Trails dels amics]]></name>
    <trkseg>
      <trkpt lat="42.50523" lon="2.04292">
        <ele>1762</ele>
        <time>2021-10-20T21:55:25Z</time>
      </trkpt>
      <trkpt lat="42.50508" lon="2.04463">
        <ele>1767</ele>
        <time>2021-10-20T21:55:25Z</time>
      </trkpt>
      <trkpt lat="42.50566" lon="2.04514">
        <ele>1778</ele>
        <time>2021-10-20T21:55:25Z</time>
      </trkpt>
      <trkpt lat="42.50628" lon="2.04321">
        <ele>1786</ele>
        <time>2021-10-20T21:55:25Z</time>
      </trkpt>
      <trkpt lat="42.50624" lon="2.04185">
        <ele>1786</ele>
        <time>2021-10-20T21:55:25Z</time>
      </trkpt>
      <trkpt lat="42.50654" lon="2.04136">
        <ele>1791</ele>
        <time>2021-10-20T21:55:25Z</time>
      </trkpt>
      <trkpt lat="42.50666" lon="2.04218">
        <ele>1798</ele>
        <time>2021-10-20T21:55:25Z</time>
      </trkpt>
      <trkpt lat="42.50752" lon="2.04237">
        <ele>1811</ele>
        <time>2021-10-20T21:55:25Z</time>
      </trkpt>
      <trkpt lat="42.50805" lon="2.04442">
        <ele>1811</ele>
        <time>2021-10-20T21:55:25Z</time>
      </trkpt>
      <trkpt lat="42.50935" lon="2.0445">
        <ele>1828</ele>
        <time>2021-10-20T21:55:25Z</time>
      </trkpt>
      <trkpt lat="42.5098" lon="2.04549">
        <ele>1827</ele>
        <time>2021-10-20T21:55:25Z</time>
      </trkpt>
      <trkpt lat="42.51113" lon="2.04478">
        <ele>1846</ele>
        <time>2021-10-20T21:55:25Z</time>
      </trkpt>
      <trkpt lat="42.51149" lon="2.04404">
        <ele>1849</ele>
        <time>2021-10-20T21:55:25Z</time>
      </trkpt>
      <trkpt lat="42.51198" lon="2.0435">
        <ele>1843</ele>
        <time>2021-10-20T21:55:25Z</time>
      </trkpt>
      <trkpt lat="42.51198" lon="2.04218">
        <ele>1844</ele>
        <time>2021-10-20T21:55:25Z</time>
      </trkpt>
      <trkpt lat="42.51185" lon="2.04057">
        <ele>1843</ele>
        <time>2021-10-20T21:55:25Z</time>
      </trkpt>
      <trkpt lat="42.51266" lon="2.04031">
        <ele>1843</ele>
        <time>2021-10-20T21:55:25Z</time>
      </trkpt>
      <trkpt lat="42.51277" lon="2.03945">
        <ele>1843</ele>
        <time>2021-10-20T21:55:25Z</time>
      </trkpt>
      <trkpt lat="42.51334" lon="2.03891">
        <ele>1849</ele>
        <time>2021-10-20T21:55:25Z</time>
      </trkpt>
      <trkpt lat="42.51463" lon="2.03799">
        <ele>1862</ele>
        <time>2021-10-20T21:55:25Z</time>
      </trkpt>
      <trkpt lat="42.5149" lon="2.03598">
        <ele>1864</ele>
        <time>2021-10-20T21:55:25Z</time>
      </trkpt>
      <trkpt lat="42.51461" lon="2.03396">
        <ele>1860</ele>
        <time>2021-10-20T21:55:25Z</time>
      </trkpt>
      <trkpt lat="42.51445" lon="2.03332">
        <ele>1862</ele>
        <time>2021-10-20T21:55:25Z</time>
      </trkpt>
      <trkpt lat="42.51347" lon="2.03223">
        <ele>1871</ele>
        <time>2021-10-20T21:55:25Z</time>
      </trkpt>
      <trkpt lat="42.51416" lon="2.0323">
        <ele>1878</ele>
        <time>2021-10-20T21:55:25Z</time>
      </trkpt>
      <trkpt lat="42.51465" lon="2.03174">
        <ele>1886</ele>
        <time>2021-10-20T21:55:25Z</time>
      </trkpt>
      <trkpt lat="42.51448" lon="2.03133">
        <ele>1889</ele>
        <time>2021-10-20T21:55:25Z</time>
      </trkpt>
      <trkpt lat="42.51516" lon="2.03003">
        <ele>1911</ele>
        <time>2021-10-20T21:55:25Z</time>
      </trkpt>
      <trkpt lat="42.51539" lon="2.02876">
        <ele>1924</ele>
        <time>2021-10-20T21:55:25Z</time>
      </trkpt>
      <trkpt lat="42.51572" lon="2.02768">
        <ele>1931</ele>
        <time>2021-10-20T21:55:25Z</time>
      </trkpt>
      <trkpt lat="42.5167" lon="2.02636">
        <ele>1944</ele>
        <time>2021-10-20T21:55:25Z</time>
      </trkpt>
      <trkpt lat="42.51762" lon="2.02516">
        <ele>1951</ele>
        <time>2021-10-20T21:55:25Z</time>
      </trkpt>
      <trkpt lat="42.51813" lon="2.0235">
        <ele>1959</ele>
        <time>2021-10-20T21:55:25Z</time>
      </trkpt>
      <trkpt lat="42.51841" lon="2.02158">
        <ele>1956</ele>
        <time>2021-10-20T21:55:25Z</time>
      </trkpt>
      <trkpt lat="42.51934" lon="2.0201">
        <ele>1960</ele>
        <time>2021-10-20T21:55:25Z</time>
      </trkpt>
      <trkpt lat="42.52045" lon="2.01975">
        <ele>1968</ele>
        <time>2021-10-20T21:55:25Z</time>
      </trkpt>
      <trkpt lat="42.52172" lon="2.02074">
        <ele>1992</ele>
        <time>2021-10-20T21:55:25Z</time>
      </trkpt>
      <trkpt lat="42.52242" lon="2.02217">
        <ele>2004</ele>
        <time>2021-10-20T21:55:25Z</time>
      </trkpt>
      <trkpt lat="42.52276" lon="2.0235">
        <ele>2012</ele>
        <time>2021-10-20T21:55:25Z</time>
      </trkpt>
      <trkpt lat="42.52355" lon="2.02375">
        <ele>2020</ele>
        <time>2021-10-20T21:55:25Z</time>
      </trkpt>
      <trkpt lat="42.52492" lon="2.02217">
        <ele>2033</ele>
        <time>2021-10-20T21:55:25Z</time>
      </trkpt>
      <trkpt lat="42.5268" lon="2.02016">
        <ele>2044</ele>
        <time>2021-10-20T21:55:25Z</time>
      </trkpt>
      <trkpt lat="42.52819" lon="2.02049">
        <ele>2047</ele>
        <time>2021-10-20T21:55:25Z</time>
      </trkpt>
      <trkpt lat="42.53036" lon="2.01859">
        <ele>2060</ele>
        <time>2021-10-20T21:55:25Z</time>
      </trkpt>
      <trkpt lat="42.53145" lon="2.01862">
        <ele>2074</ele>
        <time>2021-10-20T21:55:25Z</time>
      </trkpt>
      <trkpt lat="42.53376" lon="2.01695">
        <ele>2152</ele>
        <time>2021-10-20T21:55:25Z</time>
      </trkpt>
      <trkpt lat="42.53491" lon="2.01605">
        <ele>2206</ele>
        <time>2021-10-20T21:55:25Z</time>
      </trkpt>
      <trkpt lat="42.53573" lon="2.01533">
        <ele>2211</ele>
        <time>2021-10-20T21:55:25Z</time>
      </trkpt>
      <trkpt lat="42.53571" lon="2.01316">
        <ele>2200</ele>
        <time>2021-10-20T21:55:25Z</time>
      </trkpt>
      <trkpt lat="42.53842" lon="2.01148">
        <ele>2140</ele>
        <time>2021-10-20T21:55:25Z</time>
      </trkpt>
      <trkpt lat="42.5397" lon="2.0111">
        <ele>2100</ele>
        <time>2021-10-20T21:55:25Z</time>
      </trkpt>
      <trkpt lat="42.54036" lon="2.01019">
        <ele>2075</ele>
        <time>2021-10-20T21:55:25Z</time>
      </trkpt>
      <trkpt lat="42.54145" lon="2.01033">
        <ele>2052</ele>
        <time>2021-10-20T21:55:25Z</time>
      </trkpt>
      <trkpt lat="42.54265" lon="2.0089">
        <ele>2013</ele>
        <time>2021-10-20T21:55:25Z</time>
      </trkpt>
      <trkpt lat="42.54382" lon="2.00732">
        <ele>1968</ele>
        <time>2021-10-20T21:55:25Z</time>
      </trkpt>
      <trkpt lat="42.54455" lon="2.00633">
        <ele>1954</ele>
        <time>2021-10-20T21:55:25Z</time>
      </trkpt>
      <trkpt lat="42.54515" lon="2.00597">
        <ele>1957</ele>
        <time>2021-10-20T21:55:25Z</time>
      </trkpt>
      <trkpt lat="42.54549" lon="2.00515">
        <ele>1953</ele>
        <time>2021-10-20T21:55:25Z</time>
      </trkpt>
      <trkpt lat="42.54617" lon="2.00423">
        <ele>1954</ele>
        <time>2021-10-20T21:55:25Z</time>
      </trkpt>
      <trkpt lat="42.54658" lon="2.00285">
        <ele>1962</ele>
        <time>2021-10-20T21:55:25Z</time>
      </trkpt>
      <trkpt lat="42.54654" lon="1.99974">
        <ele>2001</ele>
        <time>2021-10-20T21:55:25Z</time>
      </trkpt>
      <trkpt lat="42.54673" lon="1.99622">
        <ele>2091</ele>
        <time>2021-10-20T21:55:25Z</time>
      </trkpt>
      <trkpt lat="42.54685" lon="1.99227">
        <ele>2129</ele>
        <time>2021-10-20T21:55:25Z</time>
      </trkpt>
      <trkpt lat="42.54745" lon="1.98726">
        <ele>2159</ele>
        <time>2021-10-20T21:55:25Z</time>
      </trkpt>
      <trkpt lat="42.5513" lon="1.98367">
        <ele>2140</ele>
        <time>2021-10-20T21:55:25Z</time>
      </trkpt>
      <trkpt lat="42.55386" lon="1.98221">
        <ele>2150</ele>
        <time>2021-10-20T21:55:25Z</time>
      </trkpt>
      <trkpt lat="42.55645" lon="1.9794">
        <ele>2154</ele>
        <time>2021-10-20T21:55:25Z</time>
      </trkpt>
      <trkpt lat="42.55741" lon="1.98127">
        <ele>2164</ele>
        <time>2021-10-20T21:55:25Z</time>
      </trkpt>
      <trkpt lat="42.55884" lon="1.98124">
        <ele>2172</ele>
        <time>2021-10-20T21:55:25Z</time>
      </trkpt>
      <trkpt lat="42.5598" lon="1.98007">
        <ele>2176</ele>
        <time>2021-10-20T21:55:25Z</time>
      </trkpt>
      <trkpt lat="42.56087" lon="1.9794">
        <ele>2176</ele>
        <time>2021-10-20T21:55:25Z</time>
      </trkpt>
      <trkpt lat="42.56171" lon="1.9782">
        <ele>2170</ele>
        <time>2021-10-20T21:55:25Z</time>
      </trkpt>
      <trkpt lat="42.56188" lon="1.97604">
        <ele>2173</ele>
        <time>2021-10-20T21:55:25Z</time>
      </trkpt>
      <trkpt lat="42.56459" lon="1.97428">
        <ele>2185</ele>
        <time>2021-10-20T21:55:25Z</time>
      </trkpt>
      <trkpt lat="42.56572" lon="1.9741">
        <ele>2184</ele>
        <time>2021-10-20T21:55:25Z</time>
      </trkpt>
      <trkpt lat="42.56681" lon="1.9729">
        <ele>2197</ele>
        <time>2021-10-20T21:55:25Z</time>
      </trkpt>
      <trkpt lat="42.56758" lon="1.9729">
        <ele>2197</ele>
        <time>2021-10-20T21:55:25Z</time>
      </trkpt>
      <trkpt lat="42.56959" lon="1.97121">
        <ele>2228</ele>
        <time>2021-10-20T21:55:25Z</time>
      </trkpt>
      <trkpt lat="42.571" lon="1.9707">
        <ele>2237</ele>
        <time>2021-10-20T21:55:25Z</time>
      </trkpt>
      <trkpt lat="42.5731" lon="1.96876">
        <ele>2230</ele>
        <time>2021-10-20T21:55:25Z</time>
      </trkpt>
      <trkpt lat="42.57314" lon="1.96677">
        <ele>2240</ele>
        <time>2021-10-20T21:55:25Z</time>
      </trkpt>
      <trkpt lat="42.5726" lon="1.96616">
        <ele>2244</ele>
        <time>2021-10-20T21:55:25Z</time>
      </trkpt>
      <trkpt lat="42.57201" lon="1.96147">
        <ele>2296</ele>
        <time>2021-10-20T21:55:25Z</time>
      </trkpt>
      <trkpt lat="42.5726" lon="1.95843">
        <ele>2351</ele>
        <time>2021-10-20T21:55:25Z</time>
      </trkpt>
      <trkpt lat="42.57243" lon="1.95782">
        <ele>2352</ele>
        <time>2021-10-20T21:55:25Z</time>
      </trkpt>
      <trkpt lat="42.57297" lon="1.95602">
        <ele>2343</ele>
        <time>2021-10-20T21:55:25Z</time>
      </trkpt>
      <trkpt lat="42.57457" lon="1.95682">
        <ele>2341</ele>
        <time>2021-10-20T21:55:25Z</time>
      </trkpt>
      <trkpt lat="42.57555" lon="1.96004">
        <ele>2323</ele>
        <time>2021-10-20T21:55:25Z</time>
      </trkpt>
      <trkpt lat="42.57602" lon="1.962">
        <ele>2320</ele>
        <time>2021-10-20T21:55:25Z</time>
      </trkpt>
      <trkpt lat="42.57664" lon="1.96366">
        <ele>2315</ele>
        <time>2021-10-20T21:55:25Z</time>
      </trkpt>
      <trkpt lat="42.5765" lon="1.96522">
        <ele>2314</ele>
        <time>2021-10-20T21:55:25Z</time>
      </trkpt>
      <trkpt lat="42.57615" lon="1.96557">
        <ele>2313</ele>
        <time>2021-10-20T21:55:25Z</time>
      </trkpt>
      <trkpt lat="42.57617" lon="1.96723">
        <ele>2308</ele>
        <time>2021-10-20T21:55:25Z</time>
      </trkpt>
      <trkpt lat="42.57555" lon="1.96935">
        <ele>2293</ele>
        <time>2021-10-20T21:55:25Z</time>
      </trkpt>
      <trkpt lat="42.57459" lon="1.97221">
        <ele>2244</ele>
        <time>2021-10-20T21:55:25Z</time>
      </trkpt>
      <trkpt lat="42.57384" lon="1.97302">
        <ele>2241</ele>
        <time>2021-10-20T21:55:25Z</time>
      </trkpt>
      <trkpt lat="42.57361" lon="1.97438">
        <ele>2243</ele>
        <time>2021-10-20T21:55:25Z</time>
      </trkpt>
      <trkpt lat="42.5729" lon="1.97563">
        <ele>2240</ele>
        <time>2021-10-20T21:55:25Z</time>
      </trkpt>
      <trkpt lat="42.57182" lon="1.9778">
        <ele>2222</ele>
        <time>2021-10-20T21:55:25Z</time>
      </trkpt>
      <trkpt lat="42.57134" lon="1.97846">
        <ele>2211</ele>
        <time>2021-10-20T21:55:25Z</time>
      </trkpt>
      <trkpt lat="42.57017" lon="1.97948">
        <ele>2185</ele>
        <time>2021-10-20T21:55:25Z</time>
      </trkpt>
      <trkpt lat="42.56983" lon="1.97935">
        <ele>2184</ele>
        <time>2021-10-20T21:55:25Z</time>
      </trkpt>
      <trkpt lat="42.56876" lon="1.98078">
        <ele>2180</ele>
        <time>2021-10-20T21:55:25Z</time>
      </trkpt>
      <trkpt lat="42.56829" lon="1.98083">
        <ele>2179</ele>
        <time>2021-10-20T21:55:25Z</time>
      </trkpt>
      <trkpt lat="42.56745" lon="1.98213">
        <ele>2179</ele>
        <time>2021-10-20T21:55:25Z</time>
      </trkpt>
      <trkpt lat="42.56574" lon="1.98285">
        <ele>2153</ele>
        <time>2021-10-20T21:55:25Z</time>
      </trkpt>
      <trkpt lat="42.56493" lon="1.9843">
        <ele>2150</ele>
        <time>2021-10-20T21:55:25Z</time>
      </trkpt>
      <trkpt lat="42.56427" lon="1.98441">
        <ele>2151</ele>
        <time>2021-10-20T21:55:25Z</time>
      </trkpt>
      <trkpt lat="42.56427" lon="1.98563">
        <ele>2141</ele>
        <time>2021-10-20T21:55:25Z</time>
      </trkpt>
      <trkpt lat="42.56354" lon="1.98627">
        <ele>2136</ele>
        <time>2021-10-20T21:55:25Z</time>
      </trkpt>
      <trkpt lat="42.56297" lon="1.98719">
        <ele>2125</ele>
        <time>2021-10-20T21:55:25Z</time>
      </trkpt>
      <trkpt lat="42.5619" lon="1.98828">
        <ele>2111</ele>
        <time>2021-10-20T21:55:25Z</time>
      </trkpt>
      <trkpt lat="42.56072" lon="1.9902">
        <ele>2095</ele>
        <time>2021-10-20T21:55:25Z</time>
      </trkpt>
      <trkpt lat="42.5603" lon="1.99094">
        <ele>2089</ele>
        <time>2021-10-20T21:55:25Z</time>
      </trkpt>
      <trkpt lat="42.55995" lon="1.99244">
        <ele>2073</ele>
        <time>2021-10-20T21:55:25Z</time>
      </trkpt>
      <trkpt lat="42.56023" lon="1.99464">
        <ele>2061</ele>
        <time>2021-10-20T21:55:25Z</time>
      </trkpt>
      <trkpt lat="42.5598" lon="1.9963">
        <ele>2034</ele>
        <time>2021-10-20T21:55:25Z</time>
      </trkpt>
      <trkpt lat="42.5597" lon="1.99696">
        <ele>2030</ele>
        <time>2021-10-20T21:55:25Z</time>
      </trkpt>
      <trkpt lat="42.5604" lon="1.99798">
        <ele>2022</ele>
        <time>2021-10-20T21:55:25Z</time>
      </trkpt>
      <trkpt lat="42.56222" lon="1.99683">
        <ele>2031</ele>
        <time>2021-10-20T21:55:25Z</time>
      </trkpt>
      <trkpt lat="42.56359" lon="1.99619">
        <ele>2031</ele>
        <time>2021-10-20T21:55:25Z</time>
      </trkpt>
      <trkpt lat="42.56427" lon="1.99533">
        <ele>2040</ele>
        <time>2021-10-20T21:55:25Z</time>
      </trkpt>
      <trkpt lat="42.56577" lon="1.99558">
        <ele>2023</ele>
        <time>2021-10-20T21:55:25Z</time>
      </trkpt>
      <trkpt lat="42.56666" lon="1.99515">
        <ele>2023</ele>
        <time>2021-10-20T21:55:25Z</time>
      </trkpt>
      <trkpt lat="42.56705" lon="1.99451">
        <ele>2030</ele>
        <time>2021-10-20T21:55:25Z</time>
      </trkpt>
      <trkpt lat="42.56726" lon="1.99466">
        <ele>2025</ele>
        <time>2021-10-20T21:55:25Z</time>
      </trkpt>
      <trkpt lat="42.56792" lon="1.99408">
        <ele>2036</ele>
        <time>2021-10-20T21:55:25Z</time>
      </trkpt>
      <trkpt lat="42.56861" lon="1.99436">
        <ele>2030</ele>
        <time>2021-10-20T21:55:25Z</time>
      </trkpt>
      <trkpt lat="42.56955" lon="1.99385">
        <ele>2028</ele>
        <time>2021-10-20T21:55:25Z</time>
      </trkpt>
      <trkpt lat="42.57107" lon="1.99239">
        <ele>2045</ele>
        <time>2021-10-20T21:55:25Z</time>
      </trkpt>
      <trkpt lat="42.57218" lon="1.99329">
        <ele>2029</ele>
        <time>2021-10-20T21:55:25Z</time>
      </trkpt>
      <trkpt lat="42.57269" lon="1.99262">
        <ele>2046</ele>
        <time>2021-10-20T21:55:25Z</time>
      </trkpt>
      <trkpt lat="42.57502" lon="1.99352">
        <ele>2028</ele>
        <time>2021-10-20T21:55:25Z</time>
      </trkpt>
      <trkpt lat="42.5765" lon="1.99418">
        <ele>2023</ele>
        <time>2021-10-20T21:55:25Z</time>
      </trkpt>
      <trkpt lat="42.57675" lon="1.99382">
        <ele>2031</ele>
        <time>2021-10-20T21:55:25Z</time>
      </trkpt>
      <trkpt lat="42.57823" lon="1.99397">
        <ele>2033</ele>
        <time>2021-10-20T21:55:25Z</time>
      </trkpt>
      <trkpt lat="42.57913" lon="1.99471">
        <ele>2044</ele>
        <time>2021-10-20T21:55:25Z</time>
      </trkpt>
      <trkpt lat="42.58043" lon="1.99558">
        <ele>2054</ele>
        <time>2021-10-20T21:55:25Z</time>
      </trkpt>
      <trkpt lat="42.5816" lon="1.99494">
        <ele>2054</ele>
        <time>2021-10-20T21:55:25Z</time>
      </trkpt>
      <trkpt lat="42.58259" lon="1.99311">
        <ele>2049</ele>
        <time>2021-10-20T21:55:25Z</time>
      </trkpt>
      <trkpt lat="42.58466" lon="1.99068">
        <ele>2056</ele>
        <time>2021-10-20T21:55:25Z</time>
      </trkpt>
      <trkpt lat="42.58607" lon="1.98918">
        <ele>2057</ele>
        <time>2021-10-20T21:55:25Z</time>
      </trkpt>
      <trkpt lat="42.58637" lon="1.98793">
        <ele>2065</ele>
        <time>2021-10-20T21:55:25Z</time>
      </trkpt>
      <trkpt lat="42.58755" lon="1.98665">
        <ele>2062</ele>
        <time>2021-10-20T21:55:25Z</time>
      </trkpt>
      <trkpt lat="42.58855" lon="1.98428">
        <ele>2076</ele>
        <time>2021-10-20T21:55:25Z</time>
      </trkpt>
      <trkpt lat="42.59009" lon="1.97999">
        <ele>2079</ele>
        <time>2021-10-20T21:55:25Z</time>
      </trkpt>
      <trkpt lat="42.59086" lon="1.97805">
        <ele>2074</ele>
        <time>2021-10-20T21:55:25Z</time>
      </trkpt>
      <trkpt lat="42.59206" lon="1.97629">
        <ele>2079</ele>
        <time>2021-10-20T21:55:25Z</time>
      </trkpt>
      <trkpt lat="42.59345" lon="1.9718">
        <ele>2098</ele>
        <time>2021-10-20T21:55:25Z</time>
      </trkpt>
      <trkpt lat="42.59368" lon="1.96966">
        <ele>2121</ele>
        <time>2021-10-20T21:55:25Z</time>
      </trkpt>
      <trkpt lat="42.59405" lon="1.96902">
        <ele>2121</ele>
        <time>2021-10-20T21:55:25Z</time>
      </trkpt>
      <trkpt lat="42.59458" lon="1.96733">
        <ele>2129</ele>
        <time>2021-10-20T21:55:25Z</time>
      </trkpt>
      <trkpt lat="42.59448" lon="1.96682">
        <ele>2135</ele>
        <time>2021-10-20T21:55:25Z</time>
      </trkpt>
      <trkpt lat="42.59478" lon="1.96621">
        <ele>2138</ele>
        <time>2021-10-20T21:55:25Z</time>
      </trkpt>
      <trkpt lat="42.5958" lon="1.96256">
        <ele>2149</ele>
        <time>2021-10-20T21:55:25Z</time>
      </trkpt>
      <trkpt lat="42.59704" lon="1.9607">
        <ele>2149</ele>
        <time>2021-10-20T21:55:25Z</time>
      </trkpt>
      <trkpt lat="42.59835" lon="1.95953">
        <ele>2148</ele>
        <time>2021-10-20T21:55:25Z</time>
      </trkpt>
      <trkpt lat="42.59937" lon="1.95774">
        <ele>2156</ele>
        <time>2021-10-20T21:55:25Z</time>
      </trkpt>
      <trkpt lat="42.60036" lon="1.95646">
        <ele>2166</ele>
        <time>2021-10-20T21:55:25Z</time>
      </trkpt>
      <trkpt lat="42.60064" lon="1.95488">
        <ele>2186</ele>
        <time>2021-10-20T21:55:25Z</time>
      </trkpt>
      <trkpt lat="42.60288" lon="1.95371">
        <ele>2167</ele>
        <time>2021-10-20T21:55:25Z</time>
      </trkpt>
      <trkpt lat="42.60373" lon="1.95325">
        <ele>2171</ele>
        <time>2021-10-20T21:55:25Z</time>
      </trkpt>
      <trkpt lat="42.60453" lon="1.9535">
        <ele>2176</ele>
        <time>2021-10-20T21:55:25Z</time>
      </trkpt>
      <trkpt lat="42.60572" lon="1.95307">
        <ele>2198</ele>
        <time>2021-10-20T21:55:25Z</time>
      </trkpt>
      <trkpt lat="42.60756" lon="1.95368">
        <ele>2263</ele>
        <time>2021-10-20T21:55:25Z</time>
      </trkpt>
      <trkpt lat="42.60983" lon="1.95371">
        <ele>2340</ele>
        <time>2021-10-20T21:55:25Z</time>
      </trkpt>
      <trkpt lat="42.61129" lon="1.95486">
        <ele>2408</ele>
        <time>2021-10-20T21:55:25Z</time>
      </trkpt>
      <trkpt lat="42.61261" lon="1.95511">
        <ele>2472</ele>
        <time>2021-10-20T21:55:25Z</time>
      </trkpt>
      <trkpt lat="42.61372" lon="1.95544">
        <ele>2512</ele>
        <time>2021-10-20T21:55:25Z</time>
      </trkpt>
      <trkpt lat="42.61407" lon="1.95613">
        <ele>2522</ele>
        <time>2021-10-20T21:55:25Z</time>
      </trkpt>
      <trkpt lat="42.61366" lon="1.95713">
        <ele>2531</ele>
        <time>2021-10-20T21:55:25Z</time>
      </trkpt>
      <trkpt lat="42.61285" lon="1.95754">
        <ele>2533</ele>
        <time>2021-10-20T21:55:25Z</time>
      </trkpt>
      <trkpt lat="42.61268" lon="1.95833">
        <ele>2530</ele>
        <time>2021-10-20T21:55:25Z</time>
      </trkpt>
      <trkpt lat="42.61417" lon="1.95945">
        <ele>2564</ele>
        <time>2021-10-20T21:55:25Z</time>
      </trkpt>
      <trkpt lat="42.61417" lon="1.96021">
        <ele>2596</ele>
        <time>2021-10-20T21:55:25Z</time>
      </trkpt>
      <trkpt lat="42.61343" lon="1.96162">
        <ele>2600</ele>
        <time>2021-10-20T21:55:25Z</time>
      </trkpt>
      <trkpt lat="42.61336" lon="1.96394">
        <ele>2560</ele>
        <time>2021-10-20T21:55:25Z</time>
      </trkpt>
      <trkpt lat="42.61353" lon="1.96654">
        <ele>2534</ele>
        <time>2021-10-20T21:55:25Z</time>
      </trkpt>
      <trkpt lat="42.61445" lon="1.96813">
        <ele>2539</ele>
        <time>2021-10-20T21:55:25Z</time>
      </trkpt>
      <trkpt lat="42.61366" lon="1.9695">
        <ele>2536</ele>
        <time>2021-10-20T21:55:25Z</time>
      </trkpt>
      <trkpt lat="42.61257" lon="1.97045">
        <ele>2515</ele>
        <time>2021-10-20T21:55:25Z</time>
      </trkpt>
      <trkpt lat="42.61188" lon="1.97065">
        <ele>2493</ele>
        <time>2021-10-20T21:55:25Z</time>
      </trkpt>
      <trkpt lat="42.61154" lon="1.97126">
        <ele>2478</ele>
        <time>2021-10-20T21:55:25Z</time>
      </trkpt>
      <trkpt lat="42.61161" lon="1.9732">
        <ele>2461</ele>
        <time>2021-10-20T21:55:25Z</time>
      </trkpt>
      <trkpt lat="42.60953" lon="1.97545">
        <ele>2418</ele>
        <time>2021-10-20T21:55:25Z</time>
      </trkpt>
      <trkpt lat="42.60865" lon="1.97726">
        <ele>2412</ele>
        <time>2021-10-20T21:55:25Z</time>
      </trkpt>
      <trkpt lat="42.60848" lon="1.97887">
        <ele>2413</ele>
        <time>2021-10-20T21:55:25Z</time>
      </trkpt>
      <trkpt lat="42.60865" lon="1.98048">
        <ele>2415</ele>
        <time>2021-10-20T21:55:25Z</time>
      </trkpt>
      <trkpt lat="42.60842" lon="1.98147">
        <ele>2409</ele>
        <time>2021-10-20T21:55:25Z</time>
      </trkpt>
      <trkpt lat="42.60727" lon="1.98351">
        <ele>2371</ele>
        <time>2021-10-20T21:55:25Z</time>
      </trkpt>
      <trkpt lat="42.60547" lon="1.98632">
        <ele>2324</ele>
        <time>2021-10-20T21:55:25Z</time>
      </trkpt>
      <trkpt lat="42.60495" lon="1.98711">
        <ele>2314</ele>
        <time>2021-10-20T21:55:25Z</time>
      </trkpt>
      <trkpt lat="42.60356" lon="1.98836">
        <ele>2311</ele>
        <time>2021-10-20T21:55:25Z</time>
      </trkpt>
      <trkpt lat="42.60198" lon="1.99002">
        <ele>2318</ele>
        <time>2021-10-20T21:55:25Z</time>
      </trkpt>
      <trkpt lat="42.60164" lon="1.99392">
        <ele>2291</ele>
        <time>2021-10-20T21:55:25Z</time>
      </trkpt>
      <trkpt lat="42.60108" lon="1.99558">
        <ele>2272</ele>
        <time>2021-10-20T21:55:25Z</time>
      </trkpt>
      <trkpt lat="42.60051" lon="1.99543">
        <ele>2266</ele>
        <time>2021-10-20T21:55:25Z</time>
      </trkpt>
      <trkpt lat="42.59972" lon="1.99724">
        <ele>2252</ele>
        <time>2021-10-20T21:55:25Z</time>
      </trkpt>
      <trkpt lat="42.5979" lon="1.99773">
        <ele>2246</ele>
        <time>2021-10-20T21:55:25Z</time>
      </trkpt>
      <trkpt lat="42.59751" lon="1.99826">
        <ele>2242</ele>
        <time>2021-10-20T21:55:25Z</time>
      </trkpt>
      <trkpt lat="42.59674" lon="1.99852">
        <ele>2229</ele>
        <time>2021-10-20T21:55:25Z</time>
      </trkpt>
      <trkpt lat="42.59608" lon="1.99946">
        <ele>2223</ele>
        <time>2021-10-20T21:55:25Z</time>
      </trkpt>
      <trkpt lat="42.59522" lon="2.0027">
        <ele>2201</ele>
        <time>2021-10-20T21:55:25Z</time>
      </trkpt>
      <trkpt lat="42.5948" lon="2.00612">
        <ele>2183</ele>
        <time>2021-10-20T21:55:25Z</time>
      </trkpt>
      <trkpt lat="42.59354" lon="2.00701">
        <ele>2153</ele>
        <time>2021-10-20T21:55:25Z</time>
      </trkpt>
      <trkpt lat="42.59291" lon="2.00824">
        <ele>2139</ele>
        <time>2021-10-20T21:55:25Z</time>
      </trkpt>
      <trkpt lat="42.59251" lon="2.00946">
        <ele>2130</ele>
        <time>2021-10-20T21:55:25Z</time>
      </trkpt>
      <trkpt lat="42.59219" lon="2.01043">
        <ele>2131</ele>
        <time>2021-10-20T21:55:25Z</time>
      </trkpt>
      <trkpt lat="42.59071" lon="2.01158">
        <ele>2121</ele>
        <time>2021-10-20T21:55:25Z</time>
      </trkpt>
      <trkpt lat="42.58997" lon="2.01212">
        <ele>2122</ele>
        <time>2021-10-20T21:55:25Z</time>
      </trkpt>
      <trkpt lat="42.58996" lon="2.01444">
        <ele>2117</ele>
        <time>2021-10-20T21:55:25Z</time>
      </trkpt>
      <trkpt lat="42.58928" lon="2.01681">
        <ele>2107</ele>
        <time>2021-10-20T21:55:25Z</time>
      </trkpt>
      <trkpt lat="42.58919" lon="2.01817">
        <ele>2102</ele>
        <time>2021-10-20T21:55:25Z</time>
      </trkpt>
      <trkpt lat="42.58868" lon="2.01957">
        <ele>2083</ele>
        <time>2021-10-20T21:55:25Z</time>
      </trkpt>
      <trkpt lat="42.58744" lon="2.02151">
        <ele>2068</ele>
        <time>2021-10-20T21:55:25Z</time>
      </trkpt>
      <trkpt lat="42.58765" lon="2.02337">
        <ele>2075</ele>
        <time>2021-10-20T21:55:25Z</time>
      </trkpt>
      <trkpt lat="42.58697" lon="2.02676">
        <ele>2006</ele>
        <time>2021-10-20T21:55:25Z</time>
      </trkpt>
      <trkpt lat="42.58796" lon="2.02942">
        <ele>1982</ele>
        <time>2021-10-20T21:55:25Z</time>
      </trkpt>
      <trkpt lat="42.58843" lon="2.03036">
        <ele>1976</ele>
        <time>2021-10-20T21:55:25Z</time>
      </trkpt>
      <trkpt lat="42.58843" lon="2.03192">
        <ele>1975</ele>
        <time>2021-10-20T21:55:25Z</time>
      </trkpt>
      <trkpt lat="42.58907" lon="2.03312">
        <ele>1963</ele>
        <time>2021-10-20T21:55:25Z</time>
      </trkpt>
      <trkpt lat="42.58875" lon="2.03457">
        <ele>1969</ele>
        <time>2021-10-20T21:55:25Z</time>
      </trkpt>
      <trkpt lat="42.58943" lon="2.0357">
        <ele>1951</ele>
        <time>2021-10-20T21:55:25Z</time>
      </trkpt>
      <trkpt lat="42.58911" lon="2.03835">
        <ele>1922</ele>
        <time>2021-10-20T21:55:25Z</time>
      </trkpt>
      <trkpt lat="42.58958" lon="2.03899">
        <ele>1912</ele>
        <time>2021-10-20T21:55:25Z</time>
      </trkpt>
      <trkpt lat="42.58971" lon="2.03975">
        <ele>1893</ele>
        <time>2021-10-20T21:55:25Z</time>
      </trkpt>
      <trkpt lat="42.59033" lon="2.0395">
        <ele>1889</ele>
        <time>2021-10-20T21:55:25Z</time>
      </trkpt>
      <trkpt lat="42.59037" lon="2.04044">
        <ele>1865</ele>
        <time>2021-10-20T21:55:25Z</time>
      </trkpt>
      <trkpt lat="42.59086" lon="2.04021">
        <ele>1865</ele>
        <time>2021-10-20T21:55:25Z</time>
      </trkpt>
      <trkpt lat="42.5912" lon="2.0408">
        <ele>1856</ele>
        <time>2021-10-20T21:55:25Z</time>
      </trkpt>
      <trkpt lat="42.59018" lon="2.04105">
        <ele>1855</ele>
        <time>2021-10-20T21:55:25Z</time>
      </trkpt>
      <trkpt lat="42.58964" lon="2.04251">
        <ele>1851</ele>
        <time>2021-10-20T21:55:25Z</time>
      </trkpt>
      <trkpt lat="42.58894" lon="2.04299">
        <ele>1853</ele>
        <time>2021-10-20T21:55:25Z</time>
      </trkpt>
      <trkpt lat="42.58819" lon="2.0433">
        <ele>1845</ele>
        <time>2021-10-20T21:55:25Z</time>
      </trkpt>
      <trkpt lat="42.5878" lon="2.04493">
        <ele>1829</ele>
        <time>2021-10-20T21:55:25Z</time>
      </trkpt>
      <trkpt lat="42.58765" lon="2.04749">
        <ele>1800</ele>
        <time>2021-10-20T21:55:25Z</time>
      </trkpt>
      <trkpt lat="42.58783" lon="2.04891">
        <ele>1796</ele>
        <time>2021-10-20T21:55:25Z</time>
      </trkpt>
      <trkpt lat="42.58761" lon="2.05039">
        <ele>1781</ele>
        <time>2021-10-20T21:55:25Z</time>
      </trkpt>
      <trkpt lat="42.58796" lon="2.05167">
        <ele>1780</ele>
        <time>2021-10-20T21:55:25Z</time>
      </trkpt>
      <trkpt lat="42.58842" lon="2.05215">
        <ele>1783</ele>
        <time>2021-10-20T21:55:25Z</time>
      </trkpt>
      <trkpt lat="42.58834" lon="2.05246">
        <ele>1781</ele>
        <time>2021-10-20T21:55:25Z</time>
      </trkpt>
      <trkpt lat="42.58761" lon="2.05238">
        <ele>1775</ele>
        <time>2021-10-20T21:55:25Z</time>
      </trkpt>
      <trkpt lat="42.58723" lon="2.0531">
        <ele>1775</ele>
        <time>2021-10-20T21:55:25Z</time>
      </trkpt>
      <trkpt lat="42.58742" lon="2.05425">
        <ele>1771</ele>
        <time>2021-10-20T21:55:25Z</time>
      </trkpt>
      <trkpt lat="42.58695" lon="2.05494">
        <ele>1761</ele>
        <time>2021-10-20T21:55:25Z</time>
      </trkpt>
      <trkpt lat="42.58718" lon="2.05675">
        <ele>1730</ele>
        <time>2021-10-20T21:55:25Z</time>
      </trkpt>
      <trkpt lat="42.58721" lon="2.05767">
        <ele>1708</ele>
        <time>2021-10-20T21:55:25Z</time>
      </trkpt>
      <trkpt lat="42.58813" lon="2.05749">
        <ele>1712</ele>
        <time>2021-10-20T21:55:25Z</time>
      </trkpt>
      <trkpt lat="42.58842" lon="2.05853">
        <ele>1704</ele>
        <time>2021-10-20T21:55:25Z</time>
      </trkpt>
      <trkpt lat="42.58812" lon="2.0607">
        <ele>1688</ele>
        <time>2021-10-20T21:55:25Z</time>
      </trkpt>
      <trkpt lat="42.58827" lon="2.06149">
        <ele>1679</ele>
        <time>2021-10-20T21:55:25Z</time>
      </trkpt>
      <trkpt lat="42.58894" lon="2.06193">
        <ele>1683</ele>
        <time>2021-10-20T21:55:25Z</time>
      </trkpt>
      <trkpt lat="42.58997" lon="2.06351">
        <ele>1682</ele>
        <time>2021-10-20T21:55:25Z</time>
      </trkpt>
      <trkpt lat="42.59212" lon="2.06627">
        <ele>1681</ele>
        <time>2021-10-20T21:55:25Z</time>
      </trkpt>
      <trkpt lat="42.59478" lon="2.06864">
        <ele>1678</ele>
        <time>2021-10-20T21:55:25Z</time>
      </trkpt>
      <trkpt lat="42.59749" lon="2.0691">
        <ele>1699</ele>
        <time>2021-10-20T21:55:25Z</time>
      </trkpt>
      <trkpt lat="42.59886" lon="2.0692">
        <ele>1700</ele>
        <time>2021-10-20T21:55:25Z</time>
      </trkpt>
      <trkpt lat="42.59952" lon="2.06558">
        <ele>1712</ele>
        <time>2021-10-20T21:55:25Z</time>
      </trkpt>
      <trkpt lat="42.60034" lon="2.06532">
        <ele>1705</ele>
        <time>2021-10-20T21:55:25Z</time>
      </trkpt>
      <trkpt lat="42.60068" lon="2.06578">
        <ele>1705</ele>
        <time>2021-10-20T21:55:25Z</time>
      </trkpt>
      <trkpt lat="42.60087" lon="2.0669">
        <ele>1710</ele>
        <time>2021-10-20T21:55:25Z</time>
      </trkpt>
      <trkpt lat="42.60224" lon="2.0656">
        <ele>1719</ele>
        <time>2021-10-20T21:55:25Z</time>
      </trkpt>
      <trkpt lat="42.60356" lon="2.06229">
        <ele>1737</ele>
        <time>2021-10-20T21:55:25Z</time>
      </trkpt>
      <trkpt lat="42.60472" lon="2.06009">
        <ele>1736</ele>
        <time>2021-10-20T21:55:25Z</time>
      </trkpt>
      <trkpt lat="42.60523" lon="2.05851">
        <ele>1733</ele>
        <time>2021-10-20T21:55:25Z</time>
      </trkpt>
      <trkpt lat="42.60709" lon="2.05652">
        <ele>1737</ele>
        <time>2021-10-20T21:55:25Z</time>
      </trkpt>
      <trkpt lat="42.60836" lon="2.05527">
        <ele>1740</ele>
        <time>2021-10-20T21:55:25Z</time>
      </trkpt>
      <trkpt lat="42.61007" lon="2.05453">
        <ele>1750</ele>
        <time>2021-10-20T21:55:25Z</time>
      </trkpt>
      <trkpt lat="42.61099" lon="2.05384">
        <ele>1749</ele>
        <time>2021-10-20T21:55:25Z</time>
      </trkpt>
      <trkpt lat="42.61124" lon="2.0533">
        <ele>1743</ele>
        <time>2021-10-20T21:55:25Z</time>
      </trkpt>
      <trkpt lat="42.6128" lon="2.05226">
        <ele>1749</ele>
        <time>2021-10-20T21:55:25Z</time>
      </trkpt>
      <trkpt lat="42.61325" lon="2.05121">
        <ele>1757</ele>
        <time>2021-10-20T21:55:25Z</time>
      </trkpt>
      <trkpt lat="42.6158" lon="2.05098">
        <ele>1762</ele>
        <time>2021-10-20T21:55:25Z</time>
      </trkpt>
      <trkpt lat="42.61674" lon="2.04981">
        <ele>1771</ele>
        <time>2021-10-20T21:55:25Z</time>
      </trkpt>
      <trkpt lat="42.61774" lon="2.04968">
        <ele>1769</ele>
        <time>2021-10-20T21:55:25Z</time>
      </trkpt>
      <trkpt lat="42.61905" lon="2.04789">
        <ele>1774</ele>
        <time>2021-10-20T21:55:25Z</time>
      </trkpt>
      <trkpt lat="42.61946" lon="2.04726">
        <ele>1780</ele>
        <time>2021-10-20T21:55:25Z</time>
      </trkpt>
      <trkpt lat="42.61995" lon="2.04465">
        <ele>1810</ele>
        <time>2021-10-20T21:55:25Z</time>
      </trkpt>
      <trkpt lat="42.61926" lon="2.04011">
        <ele>1836</ele>
        <time>2021-10-20T21:55:25Z</time>
      </trkpt>
      <trkpt lat="42.61882" lon="2.03817">
        <ele>1836</ele>
        <time>2021-10-20T21:55:25Z</time>
      </trkpt>
      <trkpt lat="42.6183" lon="2.03659">
        <ele>1835</ele>
        <time>2021-10-20T21:55:25Z</time>
      </trkpt>
      <trkpt lat="42.6183" lon="2.036">
        <ele>1838</ele>
        <time>2021-10-20T21:55:25Z</time>
      </trkpt>
      <trkpt lat="42.6182" lon="2.03554">
        <ele>1842</ele>
        <time>2021-10-20T21:55:25Z</time>
      </trkpt>
      <trkpt lat="42.6182" lon="2.03419">
        <ele>1850</ele>
        <time>2021-10-20T21:55:25Z</time>
      </trkpt>
      <trkpt lat="42.61738" lon="2.03156">
        <ele>1859</ele>
        <time>2021-10-20T21:55:25Z</time>
      </trkpt>
      <trkpt lat="42.61648" lon="2.02802">
        <ele>1868</ele>
        <time>2021-10-20T21:55:25Z</time>
      </trkpt>
      <trkpt lat="42.61646" lon="2.02702">
        <ele>1882</ele>
        <time>2021-10-20T21:55:25Z</time>
      </trkpt>
      <trkpt lat="42.61567" lon="2.02557">
        <ele>1886</ele>
        <time>2021-10-20T21:55:25Z</time>
      </trkpt>
      <trkpt lat="42.61644" lon="2.02437">
        <ele>1907</ele>
        <time>2021-10-20T21:55:25Z</time>
      </trkpt>
      <trkpt lat="42.61697" lon="2.02337">
        <ele>1935</ele>
        <time>2021-10-20T21:55:25Z</time>
      </trkpt>
      <trkpt lat="42.61757" lon="2.02309">
        <ele>1964</ele>
        <time>2021-10-20T21:55:25Z</time>
      </trkpt>
      <trkpt lat="42.61822" lon="2.02235">
        <ele>1999</ele>
        <time>2021-10-20T21:55:25Z</time>
      </trkpt>
      <trkpt lat="42.61813" lon="2.02141">
        <ele>2001</ele>
        <time>2021-10-20T21:55:25Z</time>
      </trkpt>
      <trkpt lat="42.61896" lon="2.02051">
        <ele>2027</ele>
        <time>2021-10-20T21:55:25Z</time>
      </trkpt>
      <trkpt lat="42.61961" lon="2.02018">
        <ele>2052</ele>
        <time>2021-10-20T21:55:25Z</time>
      </trkpt>
      <trkpt lat="42.62048" lon="2.01954">
        <ele>2089</ele>
        <time>2021-10-20T21:55:25Z</time>
      </trkpt>
      <trkpt lat="42.6207" lon="2.01763">
        <ele>2123</ele>
        <time>2021-10-20T21:55:25Z</time>
      </trkpt>
      <trkpt lat="42.62031" lon="2.01699">
        <ele>2138</ele>
        <time>2021-10-20T21:55:25Z</time>
      </trkpt>
      <trkpt lat="42.62061" lon="2.01646">
        <ele>2171</ele>
        <time>2021-10-20T21:55:25Z</time>
      </trkpt>
      <trkpt lat="42.62008" lon="2.01595">
        <ele>2196</ele>
        <time>2021-10-20T21:55:25Z</time>
      </trkpt>
      <trkpt lat="42.61967" lon="2.015">
        <ele>2234</ele>
        <time>2021-10-20T21:55:25Z</time>
      </trkpt>
      <trkpt lat="42.61946" lon="2.01411">
        <ele>2238</ele>
        <time>2021-10-20T21:55:25Z</time>
      </trkpt>
      <trkpt lat="42.61944" lon="2.01255">
        <ele>2241</ele>
        <time>2021-10-20T21:55:25Z</time>
      </trkpt>
      <trkpt lat="42.62061" lon="2.01128">
        <ele>2246</ele>
        <time>2021-10-20T21:55:25Z</time>
      </trkpt>
      <trkpt lat="42.61965" lon="2.01061">
        <ele>2242</ele>
        <time>2021-10-20T21:55:25Z</time>
      </trkpt>
      <trkpt lat="42.61901" lon="2.00967">
        <ele>2244</ele>
        <time>2021-10-20T21:55:25Z</time>
      </trkpt>
      <trkpt lat="42.61804" lon="2.00962">
        <ele>2239</ele>
        <time>2021-10-20T21:55:25Z</time>
      </trkpt>
      <trkpt lat="42.61772" lon="2.01117">
        <ele>2231</ele>
        <time>2021-10-20T21:55:25Z</time>
      </trkpt>
      <trkpt lat="42.61648" lon="2.01102">
        <ele>2228</ele>
        <time>2021-10-20T21:55:25Z</time>
      </trkpt>
      <trkpt lat="42.61605" lon="2.01054">
        <ele>2226</ele>
        <time>2021-10-20T21:55:25Z</time>
      </trkpt>
      <trkpt lat="42.61616" lon="2.00992">
        <ele>2231</ele>
        <time>2021-10-20T21:55:25Z</time>
      </trkpt>
      <trkpt lat="42.61512" lon="2.00903">
        <ele>2231</ele>
        <time>2021-10-20T21:55:25Z</time>
      </trkpt>
      <trkpt lat="42.61456" lon="2.00977">
        <ele>2224</ele>
        <time>2021-10-20T21:55:25Z</time>
      </trkpt>
      <trkpt lat="42.61287" lon="2.00987">
        <ele>2215</ele>
        <time>2021-10-20T21:55:25Z</time>
      </trkpt>
      <trkpt lat="42.61004" lon="2.00696">
        <ele>2235</ele>
        <time>2021-10-20T21:55:25Z</time>
      </trkpt>
      <trkpt lat="42.60891" lon="2.00839">
        <ele>2237</ele>
        <time>2021-10-20T21:55:25Z</time>
      </trkpt>
      <trkpt lat="42.60758" lon="2.00862">
        <ele>2240</ele>
        <time>2021-10-20T21:55:25Z</time>
      </trkpt>
      <trkpt lat="42.60619" lon="2.00719">
        <ele>2237</ele>
        <time>2021-10-20T21:55:25Z</time>
      </trkpt>
      <trkpt lat="42.60557" lon="2.00633">
        <ele>2243</ele>
        <time>2021-10-20T21:55:25Z</time>
      </trkpt>
      <trkpt lat="42.60365" lon="2.00712">
        <ele>2238</ele>
        <time>2021-10-20T21:55:25Z</time>
      </trkpt>
      <trkpt lat="42.60245" lon="2.00673">
        <ele>2232</ele>
        <time>2021-10-20T21:55:25Z</time>
      </trkpt>
      <trkpt lat="42.6019" lon="2.0061">
        <ele>2235</ele>
        <time>2021-10-20T21:55:25Z</time>
      </trkpt>
      <trkpt lat="42.59833" lon="2.00796">
        <ele>2230</ele>
        <time>2021-10-20T21:55:25Z</time>
      </trkpt>
      <trkpt lat="42.59612" lon="2.00951">
        <ele>2215</ele>
        <time>2021-10-20T21:55:25Z</time>
      </trkpt>
      <trkpt lat="42.59508" lon="2.01005">
        <ele>2203</ele>
        <time>2021-10-20T21:55:25Z</time>
      </trkpt>
      <trkpt lat="42.59405" lon="2.01176">
        <ele>2176</ele>
        <time>2021-10-20T21:55:25Z</time>
      </trkpt>
      <trkpt lat="42.59255" lon="2.01204">
        <ele>2145</ele>
        <time>2021-10-20T21:55:25Z</time>
      </trkpt>
      <trkpt lat="42.59097" lon="2.01173">
        <ele>2122</ele>
        <time>2021-10-20T21:55:25Z</time>
      </trkpt>
      <trkpt lat="42.58988" lon="2.01181">
        <ele>2120</ele>
        <time>2021-10-20T21:55:25Z</time>
      </trkpt>
      <trkpt lat="42.58952" lon="2.01112">
        <ele>2117</ele>
        <time>2021-10-20T21:55:25Z</time>
      </trkpt>
      <trkpt lat="42.58922" lon="2.00954">
        <ele>2115</ele>
        <time>2021-10-20T21:55:25Z</time>
      </trkpt>
      <trkpt lat="42.58781" lon="2.00957">
        <ele>2122</ele>
        <time>2021-10-20T21:55:25Z</time>
      </trkpt>
      <trkpt lat="42.58714" lon="2.0088">
        <ele>2121</ele>
        <time>2021-10-20T21:55:25Z</time>
      </trkpt>
      <trkpt lat="42.5862" lon="2.00857">
        <ele>2128</ele>
        <time>2021-10-20T21:55:25Z</time>
      </trkpt>
      <trkpt lat="42.58503" lon="2.01041">
        <ele>2142</ele>
        <time>2021-10-20T21:55:25Z</time>
      </trkpt>
      <trkpt lat="42.5844" lon="2.01199">
        <ele>2157</ele>
        <time>2021-10-20T21:55:25Z</time>
      </trkpt>
      <trkpt lat="42.58248" lon="2.01204">
        <ele>2175</ele>
        <time>2021-10-20T21:55:25Z</time>
      </trkpt>
      <trkpt lat="42.5822" lon="2.01306">
        <ele>2185</ele>
        <time>2021-10-20T21:55:25Z</time>
      </trkpt>
      <trkpt lat="42.58152" lon="2.01288">
        <ele>2184</ele>
        <time>2021-10-20T21:55:25Z</time>
      </trkpt>
      <trkpt lat="42.58026" lon="2.01288">
        <ele>2185</ele>
        <time>2021-10-20T21:55:25Z</time>
      </trkpt>
      <trkpt lat="42.5796" lon="2.01314">
        <ele>2188</ele>
        <time>2021-10-20T21:55:25Z</time>
      </trkpt>
      <trkpt lat="42.57902" lon="2.01314">
        <ele>2186</ele>
        <time>2021-10-20T21:55:25Z</time>
      </trkpt>
      <trkpt lat="42.57756" lon="2.01401">
        <ele>2207</ele>
        <time>2021-10-20T21:55:25Z</time>
      </trkpt>
      <trkpt lat="42.57688" lon="2.01554">
        <ele>2224</ele>
        <time>2021-10-20T21:55:25Z</time>
      </trkpt>
      <trkpt lat="42.57603" lon="2.01766">
        <ele>2196</ele>
        <time>2021-10-20T21:55:25Z</time>
      </trkpt>
      <trkpt lat="42.57423" lon="2.01822">
        <ele>2189</ele>
        <time>2021-10-20T21:55:25Z</time>
      </trkpt>
      <trkpt lat="42.57363" lon="2.01952">
        <ele>2191</ele>
        <time>2021-10-20T21:55:25Z</time>
      </trkpt>
      <trkpt lat="42.57291" lon="2.01967">
        <ele>2185</ele>
        <time>2021-10-20T21:55:25Z</time>
      </trkpt>
      <trkpt lat="42.57188" lon="2.01972">
        <ele>2178</ele>
        <time>2021-10-20T21:55:25Z</time>
      </trkpt>
      <trkpt lat="42.5706" lon="2.02084">
        <ele>2167</ele>
        <time>2021-10-20T21:55:25Z</time>
      </trkpt>
      <trkpt lat="42.57006" lon="2.02092">
        <ele>2168</ele>
        <time>2021-10-20T21:55:25Z</time>
      </trkpt>
      <trkpt lat="42.56889" lon="2.02266">
        <ele>2159</ele>
        <time>2021-10-20T21:55:25Z</time>
      </trkpt>
      <trkpt lat="42.56824" lon="2.02143">
        <ele>2182</ele>
        <time>2021-10-20T21:55:25Z</time>
      </trkpt>
      <trkpt lat="42.56812" lon="2.02013">
        <ele>2191</ele>
        <time>2021-10-20T21:55:25Z</time>
      </trkpt>
      <trkpt lat="42.56769" lon="2.01962">
        <ele>2193</ele>
        <time>2021-10-20T21:55:25Z</time>
      </trkpt>
      <trkpt lat="42.56728" lon="2.01788">
        <ele>2181</ele>
        <time>2021-10-20T21:55:25Z</time>
      </trkpt>
      <trkpt lat="42.56615" lon="2.01449">
        <ele>2128</ele>
        <time>2021-10-20T21:55:25Z</time>
      </trkpt>
      <trkpt lat="42.56579" lon="2.01288">
        <ele>2097</ele>
        <time>2021-10-20T21:55:25Z</time>
      </trkpt>
      <trkpt lat="42.5651" lon="2.01286">
        <ele>2083</ele>
        <time>2021-10-20T21:55:25Z</time>
      </trkpt>
      <trkpt lat="42.56384" lon="2.01406">
        <ele>2069</ele>
        <time>2021-10-20T21:55:25Z</time>
      </trkpt>
      <trkpt lat="42.56329" lon="2.01521">
        <ele>2058</ele>
        <time>2021-10-20T21:55:25Z</time>
      </trkpt>
      <trkpt lat="42.56215" lon="2.01623">
        <ele>2021</ele>
        <time>2021-10-20T21:55:25Z</time>
      </trkpt>
      <trkpt lat="42.56134" lon="2.01748">
        <ele>1992</ele>
        <time>2021-10-20T21:55:25Z</time>
      </trkpt>
      <trkpt lat="42.56079" lon="2.01773">
        <ele>1978</ele>
        <time>2021-10-20T21:55:25Z</time>
      </trkpt>
      <trkpt lat="42.5603" lon="2.01748">
        <ele>1963</ele>
        <time>2021-10-20T21:55:25Z</time>
      </trkpt>
      <trkpt lat="42.55983" lon="2.0176">
        <ele>1948</ele>
        <time>2021-10-20T21:55:25Z</time>
      </trkpt>
      <trkpt lat="42.55959" lon="2.01714">
        <ele>1944</ele>
        <time>2021-10-20T21:55:25Z</time>
      </trkpt>
      <trkpt lat="42.55925" lon="2.01615">
        <ele>1957</ele>
        <time>2021-10-20T21:55:25Z</time>
      </trkpt>
      <trkpt lat="42.55833" lon="2.01635">
        <ele>1946</ele>
        <time>2021-10-20T21:55:25Z</time>
      </trkpt>
      <trkpt lat="42.55741" lon="2.01612">
        <ele>1956</ele>
        <time>2021-10-20T21:55:25Z</time>
      </trkpt>
      <trkpt lat="42.55643" lon="2.01498">
        <ele>1973</ele>
        <time>2021-10-20T21:55:25Z</time>
      </trkpt>
      <trkpt lat="42.55639" lon="2.01447">
        <ele>1979</ele>
        <time>2021-10-20T21:55:25Z</time>
      </trkpt>
      <trkpt lat="42.55681" lon="2.01219">
        <ele>1981</ele>
        <time>2021-10-20T21:55:25Z</time>
      </trkpt>
      <trkpt lat="42.55692" lon="2.01069">
        <ele>1983</ele>
        <time>2021-10-20T21:55:25Z</time>
      </trkpt>
      <trkpt lat="42.55728" lon="2.00964">
        <ele>1989</ele>
        <time>2021-10-20T21:55:25Z</time>
      </trkpt>
      <trkpt lat="42.55681" lon="2.00844">
        <ele>1996</ele>
        <time>2021-10-20T21:55:25Z</time>
      </trkpt>
      <trkpt lat="42.55692" lon="2.00768">
        <ele>1997</ele>
        <time>2021-10-20T21:55:25Z</time>
      </trkpt>
      <trkpt lat="42.55681" lon="2.00732">
        <ele>1995</ele>
        <time>2021-10-20T21:55:25Z</time>
      </trkpt>
      <trkpt lat="42.55634" lon="2.00717">
        <ele>1999</ele>
        <time>2021-10-20T21:55:25Z</time>
      </trkpt>
      <trkpt lat="42.55626" lon="2.00791">
        <ele>2003</ele>
        <time>2021-10-20T21:55:25Z</time>
      </trkpt>
      <trkpt lat="42.55581" lon="2.00793">
        <ele>2010</ele>
        <time>2021-10-20T21:55:25Z</time>
      </trkpt>
      <trkpt lat="42.55534" lon="2.00918">
        <ele>2012</ele>
        <time>2021-10-20T21:55:25Z</time>
      </trkpt>
      <trkpt lat="42.55459" lon="2.00941">
        <ele>2011</ele>
        <time>2021-10-20T21:55:25Z</time>
      </trkpt>
      <trkpt lat="42.55414" lon="2.0102">
        <ele>2018</ele>
        <time>2021-10-20T21:55:25Z</time>
      </trkpt>
      <trkpt lat="42.55352" lon="2.01056">
        <ele>2029</ele>
        <time>2021-10-20T21:55:25Z</time>
      </trkpt>
      <trkpt lat="42.55301" lon="2.01133">
        <ele>2040</ele>
        <time>2021-10-20T21:55:25Z</time>
      </trkpt>
      <trkpt lat="42.55284" lon="2.0139">
        <ele>2042</ele>
        <time>2021-10-20T21:55:25Z</time>
      </trkpt>
      <trkpt lat="42.55158" lon="2.01531">
        <ele>2020</ele>
        <time>2021-10-20T21:55:25Z</time>
      </trkpt>
      <trkpt lat="42.55117" lon="2.01786">
        <ele>2017</ele>
        <time>2021-10-20T21:55:25Z</time>
      </trkpt>
      <trkpt lat="42.55053" lon="2.01868">
        <ele>2001</ele>
        <time>2021-10-20T21:55:25Z</time>
      </trkpt>
      <trkpt lat="42.54946" lon="2.01758">
        <ele>1997</ele>
        <time>2021-10-20T21:55:25Z</time>
      </trkpt>
      <trkpt lat="42.54912" lon="2.01763">
        <ele>1985</ele>
        <time>2021-10-20T21:55:25Z</time>
      </trkpt>
      <trkpt lat="42.5491" lon="2.0185">
        <ele>1964</ele>
        <time>2021-10-20T21:55:25Z</time>
      </trkpt>
      <trkpt lat="42.54839" lon="2.01906">
        <ele>1946</ele>
        <time>2021-10-20T21:55:25Z</time>
      </trkpt>
      <trkpt lat="42.54779" lon="2.01908">
        <ele>1946</ele>
        <time>2021-10-20T21:55:25Z</time>
      </trkpt>
      <trkpt lat="42.54715" lon="2.01962">
        <ele>1949</ele>
        <time>2021-10-20T21:55:25Z</time>
      </trkpt>
      <trkpt lat="42.54677" lon="2.02036">
        <ele>1950</ele>
        <time>2021-10-20T21:55:25Z</time>
      </trkpt>
      <trkpt lat="42.54594" lon="2.0199">
        <ele>1966</ele>
        <time>2021-10-20T21:55:25Z</time>
      </trkpt>
      <trkpt lat="42.54589" lon="2.01781">
        <ele>1972</ele>
        <time>2021-10-20T21:55:25Z</time>
      </trkpt>
      <trkpt lat="42.54504" lon="2.01653">
        <ele>1973</ele>
        <time>2021-10-20T21:55:25Z</time>
      </trkpt>
      <trkpt lat="42.54465" lon="2.01373">
        <ele>1969</ele>
        <time>2021-10-20T21:55:25Z</time>
      </trkpt>
      <trkpt lat="42.54412" lon="2.0124">
        <ele>1971</ele>
        <time>2021-10-20T21:55:25Z</time>
      </trkpt>
      <trkpt lat="42.54284" lon="2.01546">
        <ele>1970</ele>
        <time>2021-10-20T21:55:25Z</time>
      </trkpt>
      <trkpt lat="42.54301" lon="2.01822">
        <ele>1929</ele>
        <time>2021-10-20T21:55:25Z</time>
      </trkpt>
      <trkpt lat="42.54246" lon="2.02005">
        <ele>1922</ele>
        <time>2021-10-20T21:55:25Z</time>
      </trkpt>
      <trkpt lat="42.54228" lon="2.02141">
        <ele>1911</ele>
        <time>2021-10-20T21:55:25Z</time>
      </trkpt>
      <trkpt lat="42.54209" lon="2.02202">
        <ele>1904</ele>
        <time>2021-10-20T21:55:25Z</time>
      </trkpt>
      <trkpt lat="42.5413" lon="2.02342">
        <ele>1894</ele>
        <time>2021-10-20T21:55:25Z</time>
      </trkpt>
      <trkpt lat="42.54023" lon="2.02444">
        <ele>1913</ele>
        <time>2021-10-20T21:55:25Z</time>
      </trkpt>
      <trkpt lat="42.53981" lon="2.0258">
        <ele>1920</ele>
        <time>2021-10-20T21:55:25Z</time>
      </trkpt>
      <trkpt lat="42.53979" lon="2.02705">
        <ele>1912</ele>
        <time>2021-10-20T21:55:25Z</time>
      </trkpt>
      <trkpt lat="42.53925" lon="2.02794">
        <ele>1927</ele>
        <time>2021-10-20T21:55:25Z</time>
      </trkpt>
      <trkpt lat="42.53869" lon="2.03064">
        <ele>1956</ele>
        <time>2021-10-20T21:55:25Z</time>
      </trkpt>
      <trkpt lat="42.53831" lon="2.03174">
        <ele>1969</ele>
        <time>2021-10-20T21:55:25Z</time>
      </trkpt>
      <trkpt lat="42.53686" lon="2.03371">
        <ele>1994</ele>
        <time>2021-10-20T21:55:25Z</time>
      </trkpt>
      <trkpt lat="42.53626" lon="2.03585">
        <ele>2009</ele>
        <time>2021-10-20T21:55:25Z</time>
      </trkpt>
      <trkpt lat="42.53558" lon="2.03684">
        <ele>2029</ele>
        <time>2021-10-20T21:55:25Z</time>
      </trkpt>
      <trkpt lat="42.5356" lon="2.03735">
        <ele>2021</ele>
        <time>2021-10-20T21:55:25Z</time>
      </trkpt>
      <trkpt lat="42.53519" lon="2.03838">
        <ele>2022</ele>
        <time>2021-10-20T21:55:25Z</time>
      </trkpt>
      <trkpt lat="42.53509" lon="2.0394">
        <ele>2014</ele>
        <time>2021-10-20T21:55:25Z</time>
      </trkpt>
      <trkpt lat="42.53461" lon="2.0408">
        <ele>2007</ele>
        <time>2021-10-20T21:55:25Z</time>
      </trkpt>
      <trkpt lat="42.5343" lon="2.04241">
        <ele>2001</ele>
        <time>2021-10-20T21:55:25Z</time>
      </trkpt>
      <trkpt lat="42.53355" lon="2.0432">
        <ele>2003</ele>
        <time>2021-10-20T21:55:25Z</time>
      </trkpt>
      <trkpt lat="42.53321" lon="2.0434">
        <ele>2002</ele>
        <time>2021-10-20T21:55:25Z</time>
      </trkpt>
      <trkpt lat="42.53286" lon="2.04317">
        <ele>2001</ele>
        <time>2021-10-20T21:55:25Z</time>
      </trkpt>
      <trkpt lat="42.53199" lon="2.04368">
        <ele>1995</ele>
        <time>2021-10-20T21:55:25Z</time>
      </trkpt>
      <trkpt lat="42.53096" lon="2.04417">
        <ele>1980</ele>
        <time>2021-10-20T21:55:25Z</time>
      </trkpt>
      <trkpt lat="42.53024" lon="2.04404">
        <ele>1973</ele>
        <time>2021-10-20T21:55:25Z</time>
      </trkpt>
      <trkpt lat="42.52975" lon="2.04435">
        <ele>1967</ele>
        <time>2021-10-20T21:55:25Z</time>
      </trkpt>
      <trkpt lat="42.52919" lon="2.04557">
        <ele>1960</ele>
        <time>2021-10-20T21:55:25Z</time>
      </trkpt>
      <trkpt lat="42.52823" lon="2.047">
        <ele>1952</ele>
        <time>2021-10-20T21:55:25Z</time>
      </trkpt>
      <trkpt lat="42.5274" lon="2.04669">
        <ele>1946</ele>
        <time>2021-10-20T21:55:25Z</time>
      </trkpt>
      <trkpt lat="42.52549" lon="2.04514">
        <ele>1927</ele>
        <time>2021-10-20T21:55:25Z</time>
      </trkpt>
      <trkpt lat="42.52413" lon="2.04384">
        <ele>1931</ele>
        <time>2021-10-20T21:55:25Z</time>
      </trkpt>
      <trkpt lat="42.52351" lon="2.04284">
        <ele>1928</ele>
        <time>2021-10-20T21:55:25Z</time>
      </trkpt>
      <trkpt lat="42.52287" lon="2.04223">
        <ele>1925</ele>
        <time>2021-10-20T21:55:25Z</time>
      </trkpt>
      <trkpt lat="42.5215" lon="2.04246">
        <ele>1916</ele>
        <time>2021-10-20T21:55:25Z</time>
      </trkpt>
      <trkpt lat="42.52039" lon="2.04276">
        <ele>1914</ele>
        <time>2021-10-20T21:55:25Z</time>
      </trkpt>
      <trkpt lat="42.5195" lon="2.04317">
        <ele>1911</ele>
        <time>2021-10-20T21:55:25Z</time>
      </trkpt>
      <trkpt lat="42.51811" lon="2.04302">
        <ele>1901</ele>
        <time>2021-10-20T21:55:25Z</time>
      </trkpt>
      <trkpt lat="42.51751" lon="2.04442">
        <ele>1893</ele>
        <time>2021-10-20T21:55:25Z</time>
      </trkpt>
      <trkpt lat="42.51695" lon="2.04524">
        <ele>1882</ele>
        <time>2021-10-20T21:55:25Z</time>
      </trkpt>
      <trkpt lat="42.51463" lon="2.04532">
        <ele>1853</ele>
        <time>2021-10-20T21:55:25Z</time>
      </trkpt>
      <trkpt lat="42.51373" lon="2.04491">
        <ele>1841</ele>
        <time>2021-10-20T21:55:25Z</time>
      </trkpt>
      <trkpt lat="42.51256" lon="2.04542">
        <ele>1836</ele>
        <time>2021-10-20T21:55:25Z</time>
      </trkpt>
      <trkpt lat="42.51179" lon="2.0459">
        <ele>1830</ele>
        <time>2021-10-20T21:55:25Z</time>
      </trkpt>
      <trkpt lat="42.51076" lon="2.0459">
        <ele>1831</ele>
        <time>2021-10-20T21:55:25Z</time>
      </trkpt>
      <trkpt lat="42.50999" lon="2.04646">
        <ele>1819</ele>
        <time>2021-10-20T21:55:25Z</time>
      </trkpt>
      <trkpt lat="42.50954" lon="2.04478">
        <ele>1827</ele>
        <time>2021-10-20T21:55:25Z</time>
      </trkpt>
      <trkpt lat="42.50914" lon="2.04445">
        <ele>1826</ele>
        <time>2021-10-20T21:55:25Z</time>
      </trkpt>
      <trkpt lat="42.50825" lon="2.04463">
        <ele>1812</ele>
        <time>2021-10-20T21:55:25Z</time>
      </trkpt>
      <trkpt lat="42.50765" lon="2.04265">
        <ele>1813</ele>
        <time>2021-10-20T21:55:25Z</time>
      </trkpt>
      <trkpt lat="42.50727" lon="2.04209">
        <ele>1807</ele>
        <time>2021-10-20T21:55:25Z</time>
      </trkpt>
      <trkpt lat="42.50672" lon="2.04224">
        <ele>1799</ele>
        <time>2021-10-20T21:55:25Z</time>
      </trkpt>
      <trkpt lat="42.5067" lon="2.04128">
        <ele>1793</ele>
        <time>2021-10-20T21:55:25Z</time>
      </trkpt>
      <trkpt lat="42.50689" lon="2.04081">
        <ele>1790</ele>
        <time>2021-10-20T21:55:25Z</time>
      </trkpt>
      <trkpt lat="42.50672" lon="2.0404">
        <ele>1789</ele>
        <time>2021-10-20T21:55:25Z</time>
      </trkpt>
      <trkpt lat="42.50599" lon="2.04027">
        <ele>1778</ele>
        <time>2021-10-20T21:55:25Z</time>
      </trkpt>
      <trkpt lat="42.50567" lon="2.04003">
        <ele>1773</ele>
        <time>2021-10-20T21:55:25Z</time>
      </trkpt>
      <trkpt lat="42.50544" lon="2.04068">
        <ele>1767</ele>
        <time>2021-10-20T21:55:25Z</time>
      </trkpt>
      <trkpt lat="42.50525" lon="2.04042">
        <ele>1764</ele>
        <time>2021-10-20T21:55:25Z</time>
      </trkpt>
      <trkpt lat="42.50493" lon="2.04055">
        <ele>1757</ele>
        <time>2021-10-20T21:55:25Z</time>
      </trkpt>
      <trkpt lat="42.50518" lon="2.04265">
        <ele>1761</ele>
        <time>2021-10-20T21:55:25Z</time>
      </trkpt>
    </trkseg>
  </trk>
</gpx>